Location: Omaha
(41.2590°N, 95.9380°W)
Time: 13:42:26
(UTC-05:00)

ISS - Pass Details

Date: 09 October 2017
Orbit: 401 x 408 km, 51.6° (Epoch: 19 October)

Event Time Altitude Azimuth Distance (km) Brightness Sun altitude
Rises 19:30:31 0° 309° (NW) 2,325 0.9 -8.1°
Reaches altitude 10° 19:33:09 10° 331° (NNW) 1,466 -0.6 -8.6°
Maximum altitude 19:35:21 17° 13° (NNE) 1,135 -1.7 -9.0°
Drops below altitude 10° 19:37:33 10° 55° (NE) 1,467 -1.5 -9.4°
Enters shadow 19:37:37 10° 56° (ENE) 1,487 -1.5 -9.4°
